KB3ICM Weather Reports


time (UTC)temp
C
wind
direction
speed
KPH
gust
KPH
rain 1hr
cm
rain 24hr
cm
rain mn
cm
humidity
%
barometer
mb
20260504202321 23 234 11.3 29.0 0.00 0.00 0.00 44 1002.6
20260504201341 23 238 6.4 33.8 0.00 0.00 0.00 45 1006.9
20260504200339 23 218 14.5 25.7 0.00 0.00 0.00 44 1006.9
20260504195322 23 188 11.3 25.7 0.00 0.00 0.00 43 1007.2
20260504194326 23 252 11.3 30.6 0.00 0.00 0.00 44 1007.4
20260504193323 23 259 6.4 37.0 0.00 0.00 0.00 48 1007.5
20260504192321 23 213 14.5 32.2 0.00 0.00 0.00 45 1007.6
20260504191338 23 225 14.5 32.2 0.00 0.00 0.00 49 1007.7
20260504190337 22 208 12.9 33.8 0.00 0.00 0.00 47 1007.9
20260504185342 23 213 14.5 25.7 0.00 0.00 0.00 46 1008.1
20260504184324 22 261 16.1 25.7 0.00 0.00 0.00 48 1008.2
20260504183322 22 251 19.3 30.6 0.00 0.00 0.00 48 1008.2
20260504182321 21 286 8.0 25.7 0.00 0.00 0.00 50 944.3
20260504181324 20 230 16.1 27.4 0.00 0.00 0.00 45 1008.5
20260504180324 22 190 8.0 25.7 0.00 0.00 0.00 48 1008.6
20260504174324 22 255 17.7 30.6 0.00 0.00 0.00 52 1008.9
20260504173323 22 245 12.9 35.4 0.00 0.00 0.00 50 1009.0
20260504172323 21 205 11.3 25.7 0.00 0.00 0.00 49 1009.2
20260504171347 22 256 9.7 27.4 0.00 0.00 0.00 49 1009.2
20260504170324 21 218 11.3 19.3 0.00 0.00 0.00 46 1001.9
20260504160322 19 304 12.9 24.1 0.00 0.00 0.00 48 1006.2
20260504150326 18 266 12.9 24.1 0.00 0.00 0.00 48 1011.0
20260504141322 17 248 12.9 20.9 0.00 0.00 0.00 51 1011.3
20260504140326 16 220 9.7 24.1 0.00 0.00 0.00 52 1011.3
20260504130322 10 270 0.0 0.0 0.00 0.00 0.00 79 1011.8
20260504110321 1 269 0.0 0.0 0.00 0.00 0.00 96 1012.1
20260504100321 0 270 0.0 0.0 0.00 0.00 0.00 96 944.6
20260504081350 1 271 0.0 0.0 0.00 0.00 0.00 95 1012.2
20260504080327 1 271 0.0 0.0 0.00 0.00 0.00 95 1012.1
20260504070326 2 270 0.0 0.0 0.00 0.00 0.00 94 1012.1
20260504050322 3 270 0.0 0.0 0.00 0.00 0.00 92 1012.2
20260504045359 3 270 0.0 0.0 0.00 0.00 0.00 91 1012.2
20260504044321 3 270 0.0 0.0 0.00 0.00 0.00 91 1012.2
20260504043321 3 271 0.0 0.0 0.00 0.00 0.00 90 1012.2
20260504042324 3 271 0.0 0.0 0.00 0.00 0.00 89 1012.2
20260504041322 3 270 0.0 0.0 0.00 0.00 0.00 89 1012.1
20260504040400 4 271 0.0 0.0 0.00 0.00 0.00 88 1012.1
20260504035337 4 270 0.0 0.0 0.00 0.00 0.00 88 1012.0
20260504034341 4 271 0.0 0.0 0.00 0.00 0.00 87 1012.0
20260504033322 5 271 0.0 0.0 0.00 0.00 0.00 86 1011.9
20260504032322 5 271 0.0 0.0 0.00 0.00 0.00 86 1011.8
20260504031326 5 270 0.0 0.0 0.00 0.00 0.00 85 1011.7
20260504030325 5 271 0.0 0.0 0.00 0.00 0.00 84 1012.6
20260504025322 5 271 0.0 0.0 0.00 0.00 0.00 84 1011.7
20260504024339 6 271 0.0 0.0 0.00 0.00 0.00 83 1005.3
20260504023321 6 270 0.0 0.0 0.00 0.00 0.00 81 1011.7
20260504022324 6 270 0.0 0.0 0.00 0.00 0.00 80 1011.7
20260504021321 7 271 0.0 0.0 0.00 0.00 0.00 78 1011.7
20260504020321 7 271 0.0 0.0 0.00 0.00 0.00 76 1007.7
20260504015344 7 271 0.0 0.0 0.00 0.00 0.00 73 1011.8
20260504014321 8 270 0.0 0.0 0.00 0.00 0.00 71 1013.5
20260504013338 7 270 0.0 0.0 0.00 0.00 0.00 76 880.8
20260504012337 8 271 0.0 0.0 0.00 0.00 0.00 73 1022.3
20260504011326 9 270 0.0 0.0 0.00 0.00 0.00 68 876.3
20260504010324 9 271 0.0 0.0 0.00 0.00 0.00 66 1009.2
20260504005323 11 271 0.0 0.0 0.00 0.00 0.00 59 1011.1
20260504004322 11 271 0.0 0.0 0.00 0.00 0.00 55 1011.1
20260504003322 11 271 0.0 0.0 0.00 0.00 0.00 54 1011.0
20260504002400 11 271 0.0 0.0 0.00 0.00 0.00 55 1011.0
20260504001337 12 271 0.0 0.0 0.00 0.00 0.00 52 1010.8
20260504000325 12 271 0.0 6.4 0.00 0.00 0.00 52 1010.8
20260503235343 12 271 0.0 0.0 0.00 0.00 0.00 50 1010.7
20260503234321 12 271 4.8 9.7 0.00 0.00 0.00 51 1010.7
20260503233346 13 237 1.6 12.9 0.00 0.00 0.00 49 1010.5
20260503232325 13 248 3.2 17.7 0.00 0.00 0.00 49 1010.5
20260503231342 13 271 3.2 17.7 0.00 0.00 0.00 48 1010.5
20260503230340 13 240 6.4 14.5 0.00 0.00 0.00 47 1010.6
20260503225338 14 290 1.6 16.1 0.00 0.00 0.00 47 1010.5
20260503224321 14 223 8.0 29.0 0.00 0.00 0.00 46 1010.4
20260503223325 15 304 6.4 19.3 0.00 0.00 0.00 46 1010.4
20260503222344 15 250 0.0 24.1 0.00 0.00 0.00 46 1010.5
20260503221339 15 261 11.3 25.7 0.00 0.00 0.00 45 946.1
20260503220339 15 256 8.0 27.4 0.00 0.00 0.00 48 1010.6
20260503215337 15 297 1.6 14.5 0.00 0.00 0.00 43 1010.6
20260503214322 15 268 8.0 20.9 0.00 0.00 0.00 46 1010.5
20260503213325 15 346 4.8 19.3 0.00 0.00 0.00 47 1010.3
20260503212324 15 293 11.3 32.2 0.00 0.00 0.00 48 1010.2
20260503211324 15 250 11.3 24.1 0.00 0.00 0.00 45 1010.3
20260503210326 16 304 14.5 29.0 0.00 0.00 0.00 46 1010.3
20260503205322 15 311 4.8 20.9 0.00 0.00 0.00 49 1010.3
20260503204321 16 254 6.4 24.1 0.00 0.00 0.00 44 1010.4
20260503203323 17 334 6.4 40.2 0.00 0.00 0.00 44 1010.3